Morgantown, WV

7:22 AM EDT on September 20, 2017 (GMT -0400)
Morgantown Municipal-Hart

Weather History for KMGW - January, 2010

Change the Weather History Date:

Friday, January 1, 2010

  Actual Average Record
Temperature  
Mean Temperature 31 °F 32 °F  
Max Temperature 39 °F 39 °F 73 °F (1952)
Min Temperature 22 °F 24 °F -4 °F (1968)
Degree Days  
Heating Degree Days 34 33  
Month to date heating degree days 34 33  
Since 1 July heating degree days 1794 2017  
Cooling Degree Days 0 0  
Month to date cooling degree days 0 0  
Year to date cooling degree days 0 0  
Moisture  
Dew Point 24 °F    
Average Humidity 76    
Maximum Humidity 89    
Minimum Humidity 62    
Precipitation  
Precipitation 0.02 in 0.09 in 0.89 in (2003)
Month to date precipitation 0.02 0.09  
Year to date precipitation 0.02 0.09  
Snow  
Snow 0.00 in - - ()
Snow Depth 0.00 in    
Sea Level Pressure  
Sea Level Pressure 30.03 in    
Wind  
Wind Speed 6 mph (West)    
Max Wind Speed 16 mph    
Max Gust Speed 25 mph    
Visibility 6 miles    
Events Snow    
T = Trace of Precipitation, MM = Missing Value Source: NWS Daily Summary

Daily Weather History Graph

Daily Weather History Graph

Search for Another Location

Airport or City:

Trip Planner

Search our weather history database for the weather conditions in past years. The results will help you decide how hot, cold, wet, or windy it might be!

Date:

Astronomy

Jan. 01, 2010 Rise Set
Actual Time 7:40 AM EST 5:06 PM EST
Civil Twilight 7:10 AM EST 5:36 PM EST
Nautical Twilight 6:36 AM EST 6:10 PM EST
Astronomical Twilight 6:03 AM EST 6:42 PM EST
Moon 6:23 PM EST (1/1) 8:24 AM EST (1/1)
Length of Visible Light 10h 26m
Length of Day
9h 25m
Full, 99% of the Moon is Illuminated
Jan 1
Full
Jan 7
Last Quarter
Jan 15
New
Jan 23
First Quarter
Jan 30
Full

Hourly Weather History & Observations

Time (EST) Temp. Windchill Dew Point Humidity Pressure Visibility Wind Dir Wind Speed Gust Speed Precip Events Conditions
12:10 AM 37.4 °F 34.9 °F 35.6 °F 93% 29.99 in 10.0 mi Variable 3.5 mph - N/A   Overcast
12:19 AM 37.4 °F 34.9 °F 35.6 °F 93% 29.99 in 10.0 mi WSW 3.5 mph - N/A   Overcast
12:46 AM 37.4 °F - 33.8 °F 87% 29.99 in 10.0 mi Calm Calm - N/A   Overcast
12:53 AM 37.9 °F 35.5 °F 34.0 °F 86% 30.01 in 10.0 mi West 3.5 mph - N/A   Overcast
1:42 AM 37.4 °F 33.8 °F 33.8 °F 87% 29.98 in 10.0 mi West 4.6 mph - N/A   Overcast
1:53 AM 37.9 °F - 33.1 °F 83% 30.01 in 10.0 mi Calm Calm - N/A   Overcast
2:00 AM 37.4 °F 33.8 °F 33.8 °F 87% 29.99 in 10.0 mi West 4.6 mph - N/A   Overcast
2:53 AM 37.0 °F 34.5 °F 32.0 °F 82% 30.02 in 10.0 mi West 3.5 mph - N/A   Overcast
3:00 AM 37.4 °F 33.8 °F 32.0 °F 81% 30.00 in 10.0 mi West 4.6 mph - N/A   Overcast
3:53 AM 37.0 °F 34.5 °F 32.0 °F 82% 30.02 in 10.0 mi West 3.5 mph - N/A   Overcast
4:09 AM 37.4 °F 34.9 °F 32.0 °F 81% 30.00 in 10.0 mi Variable 3.5 mph - N/A   Overcast
4:53 AM 36.0 °F 32.1 °F 32.0 °F 86% 30.03 in 10.0 mi WSW 4.6 mph - N/A   Overcast
5:10 AM 35.6 °F - 32.0 °F 87% 30.00 in 10.0 mi Calm Calm - N/A   Overcast
5:30 AM 35.6 °F - 30.2 °F 81% 30.00 in 10.0 mi Calm Calm - N/A   Overcast
5:51 AM 35.6 °F - 30.2 °F 81% 30.00 in 8.0 mi Calm Calm - 0.01 in   Overcast
5:53 AM 36.0 °F 33.3 °F 30.9 °F 82% 30.03 in 7.0 mi Variable 3.5 mph - 0.01 in   Overcast
6:15 AM 35.6 °F - 30.2 °F 81% 30.01 in 10.0 mi Calm Calm - N/A   Overcast
6:26 AM 35.6 °F - 30.2 °F 81% 30.01 in 6.0 mi Calm Calm - 0.00 in   Overcast
6:42 AM 35.6 °F 31.7 °F 30.2 °F 81% 30.00 in 10.0 mi Variable 4.6 mph - 0.00 in   Overcast
6:53 AM 35.1 °F 29.3 °F 30.0 °F 82% 30.03 in 10.0 mi West 6.9 mph - 0.00 in   Overcast
7:02 AM 35.6 °F 31.7 °F 30.2 °F 81% 30.01 in 10.0 mi West 4.6 mph - N/A   Overcast
7:53 AM 35.1 °F 31.0 °F 30.0 °F 82% 30.02 in 7.0 mi WNW 4.6 mph - N/A   Overcast
8:01 AM 33.8 °F 28.6 °F 30.2 °F 87% 30.00 in 7.0 mi WNW 5.8 mph - N/A   Overcast
8:10 AM 33.8 °F 28.6 °F 30.2 °F 87% 30.00 in 1.8 mi WNW 5.8 mph - 0.00 in Snow Light Snow
8:17 AM 33.8 °F 29.6 °F 30.2 °F 87% 29.99 in 2.0 mi WNW 4.6 mph - 0.00 in Snow Light Snow
8:25 AM 33.8 °F 30.8 °F 30.2 °F 87% 30.00 in 7.0 mi West 3.5 mph - 0.00 in   Overcast
8:32 AM 33.8 °F 30.8 °F 30.2 °F 87% 30.00 in 9.0 mi West 3.5 mph - 0.00 in   Overcast
8:53 AM 34.0 °F - 30.9 °F 89% 30.03 in 10.0 mi Calm Calm - 0.00 in   Overcast
9:12 AM 35.6 °F 31.7 °F 30.2 °F 81% 29.99 in 10.0 mi WSW 4.6 mph - N/A   Overcast
9:53 AM 35.1 °F 30.1 °F 28.0 °F 76% 30.03 in 10.0 mi Variable 5.8 mph - N/A   Overcast
10:05 AM 35.6 °F 31.7 °F 28.4 °F 75% 30.00 in 8.0 mi Variable 4.6 mph - N/A   Overcast
10:50 AM 33.8 °F 25.8 °F 26.6 °F 75% 30.00 in 2.0 mi West 10.4 mph - 0.00 in Snow Light Snow
10:53 AM 33.1 °F 26.9 °F 27.0 °F 78% 30.03 in 2.0 mi West 6.9 mph - 0.00 in Snow Light Snow
11:11 AM 33.8 °F 29.6 °F 28.4 °F 81% 30.00 in 2.5 mi West 4.6 mph - 0.00 in Snow Light Snow
11:19 AM 33.8 °F 27.7 °F 28.4 °F 81% 30.00 in 3.0 mi West 6.9 mph - 0.00 in Snow Light Snow
11:44 AM 32.0 °F 23.0 °F 24.8 °F 75% 30.00 in 4.0 mi WNW 11.5 mph 19.6 mph 0.00 in   Haze
11:53 AM 32.0 °F 24.8 °F 25.0 °F 75% 30.03 in 7.0 mi WNW 8.1 mph 18.4 mph 0.00 in   Overcast
12:07 PM 32.0 °F 25.6 °F 26.6 °F 80% 30.00 in 6.0 mi WNW 6.9 mph - N/A   Haze
12:39 PM 30.2 °F 21.9 °F 23.0 °F 75% 29.99 in 6.0 mi WNW 9.2 mph - N/A   Haze
12:53 PM 28.9 °F 18.6 °F 21.0 °F 72% 30.03 in 5.0 mi WNW 12.7 mph 23.0 mph N/A   Haze
1:48 PM 28.4 °F 21.2 °F 17.6 °F 64% 30.01 in 3.0 mi Variable 6.9 mph 17.3 mph 0.00 in Snow Light Snow
1:53 PM 28.0 °F 20.0 °F 19.0 °F 69% 30.05 in 3.0 mi WNW 8.1 mph - 0.00 in Snow Light Snow
1:56 PM 28.4 °F 20.4 °F 19.4 °F 69% 30.02 in 2.5 mi West 8.1 mph - 0.00 in Snow Light Snow
2:04 PM 28.4 °F 21.2 °F 17.6 °F 64% 30.02 in 4.0 mi West 6.9 mph 17.3 mph 0.00 in Snow Light Snow
2:15 PM 28.4 °F 19.7 °F 17.6 °F 64% 30.02 in 2.5 mi WNW 9.2 mph 16.1 mph 0.00 in Snow Light Snow
2:24 PM 26.6 °F 17.5 °F 19.4 °F 74% 30.03 in 0.8 mi WNW 9.2 mph 17.3 mph 0.00 in Snow Light Snow
2:38 PM 26.6 °F 18.2 °F 17.6 °F 69% 30.03 in 1.5 mi WNW 8.1 mph 19.6 mph 0.01 in Snow Light Snow
2:48 PM 26.6 °F 17.5 °F 17.6 °F 69% 30.03 in 3.0 mi WNW 9.2 mph - 0.01 in Snow Light Snow
2:53 PM 26.1 °F 19.4 °F 18.0 °F 71% 30.07 in 7.0 mi WNW 5.8 mph - 0.01 in   Overcast
3:00 PM 26.6 °F 18.2 °F 17.6 °F 69% 30.04 in 10.0 mi West 8.1 mph - N/A   Overcast
3:25 PM 26.6 °F 16.8 °F 17.6 °F 69% 30.04 in 1.8 mi West 10.4 mph - 0.00 in Snow Light Snow
3:40 PM 26.6 °F 19.1 °F 17.6 °F 69% 30.05 in 3.0 mi WNW 6.9 mph - 0.00 in Snow Light Snow
3:53 PM 26.1 °F 19.4 °F 17.1 °F 69% 30.09 in 10.0 mi West 5.8 mph - 0.00 in   Overcast
4:04 PM 26.6 °F 18.2 °F 15.8 °F 64% 30.05 in 2.5 mi WNW 8.1 mph - 0.00 in Snow Light Snow
4:12 PM 24.8 °F 16.9 °F 17.6 °F 74% 30.05 in 1.0 mi WNW 6.9 mph - 0.00 in Snow Light Snow
4:26 PM 24.8 °F 17.9 °F 17.6 °F 74% 30.05 in 4.0 mi Variable 5.8 mph - 0.00 in Snow Light Snow
4:53 PM 25.0 °F 18.1 °F 17.1 °F 72% 30.09 in 2.0 mi WSW 5.8 mph - 0.00 in Snow Light Snow
5:14 PM 24.8 °F 16.9 °F 17.6 °F 74% 30.06 in 4.0 mi WNW 6.9 mph - 0.00 in Snow Light Snow
5:24 PM 24.8 °F 17.9 °F 17.6 °F 74% 30.06 in 6.0 mi West 5.8 mph - 0.00 in Snow Light Snow
5:53 PM 25.0 °F 19.3 °F 16.0 °F 69% 30.10 in 7.0 mi Variable 4.6 mph - 0.00 in Snow Light Snow
6:12 PM 24.8 °F 16.1 °F 17.6 °F 74% 30.06 in 2.0 mi West 8.1 mph - 0.00 in Snow Light Snow
6:16 PM 24.8 °F 16.1 °F 17.6 °F 74% 30.06 in 3.0 mi West 8.1 mph - 0.00 in Snow Light Snow
6:27 PM 24.8 °F 16.9 °F 17.6 °F 74% 30.06 in 8.0 mi West 6.9 mph - 0.00 in Snow Light Snow
6:53 PM 25.0 °F 15.5 °F 14.0 °F 63% 30.10 in 9.0 mi WNW 9.2 mph 16.1 mph 0.00 in   Overcast
7:06 PM 24.8 °F 15.3 °F 15.8 °F 69% 30.06 in 1.8 mi WNW 9.2 mph 20.7 mph 0.00 in Snow Light Snow
7:20 PM 23.0 °F 14.7 °F 15.8 °F 74% 30.06 in 3.0 mi Variable 6.9 mph - 0.00 in Snow Light Snow
7:53 PM 24.1 °F 17.0 °F 14.0 °F 65% 30.10 in 8.0 mi West 5.8 mph - 0.00 in Snow Light Snow
8:05 PM 24.8 °F 17.9 °F 15.8 °F 69% 30.06 in 6.0 mi West 5.8 mph - 0.00 in Snow Light Snow
8:48 PM 24.8 °F 14.0 °F 14.0 °F 64% 30.06 in 9.0 mi West 11.5 mph 16.1 mph 0.00 in Snow Light Snow
8:53 PM 24.1 °F 14.4 °F 14.0 °F 65% 30.09 in 9.0 mi West 9.2 mph 16.1 mph 0.00 in Snow Light Snow
9:53 PM 24.1 °F 16.0 °F 14.0 °F 65% 30.08 in 10.0 mi Variable 6.9 mph - 0.00 in   Overcast
10:53 PM 23.0 °F 14.7 °F 15.1 °F 72% 30.08 in 5.0 mi West 6.9 mph - 0.00 in Snow Light Snow
11:43 PM 23.0 °F 14.7 °F 15.8 °F 74% 30.03 in 2.5 mi Variable 6.9 mph - 0.00 in Snow Light Snow
11:53 PM 21.9 °F 12.5 °F 16.0 °F 78% 30.07 in 1.8 mi West 8.1 mph - 0.00 in Snow Light Snow